Location: Arbon
(43.0005°N, 0.7472°E)
Time: 22:51:16
(UTC+00:00)

Altair - Pass Details

Date: 03 December 2020
Orbit: 1501 x 1682 km, 47.2° (Epoch: 26 January)

Event Time Altitude Azimuth Distance (km) Brightness Sun altitude
Rises 18:29:43 0° 221° (SW) 4,781 10.9 -22.5°
Reaches altitude 10° 18:32:55 10° 217° (SW) 3,773 10.1 -23.1°
Maximum altitude 18:42:06 56° 143° (SE) 1,786 7.6 -24.8°
Enters shadow 18:44:59 42° 93° (E) 2,060 7.6 -25.3°
Drops below altitude 10° 18:51:02 10° 68° (ENE) 3,672 - -26.4°
Sets 18:54:05 0° 65° (ENE) 4,645 - -26.9°
